[Iaude] MPEC P88: 2020 PM2 [a=1.95,e=0.53,i=4.4,H=26.1]

mpec at marsden.cfa.harvard.edu mpec at marsden.cfa.harvard.edu
Fri Aug 14 17:22:47 EDT 2020


M.P.E.C. 2020-P88                               Issued 2020 August 14, 21:21 UT

     The Minor Planet Electronic Circulars contain information on unusual
         minor planets and routine data on comets.  They are published
    on behalf of Division F of the International Astronomical Union by the
          Minor Planet Center, Smithsonian Astrophysical Observatory,
                          Cambridge, MA 02138, U.S.A.

             Prepared using the Tamkin Foundation Computer Network

                              MPC at CFA.HARVARD.EDU
            URL https://www.minorplanetcenter.net/    ISSN 1523-6714

                                    2020 PM2                                    


Observations:
     K20P02M* C2020 08 13.41514922 43 34.129-06 43 49.26         20.91wUEP088F51
     K20P02M  C2020 08 13.42690922 43 35.295-06 44 55.49         21.00wUEP088F51
     K20P02M  C2020 08 13.43865022 43 36.436-06 46 01.29         20.85wUEP088F51
     K20P02M  C2020 08 13.45048322 43 37.565-06 47 07.48         20.90wUEP088F51
     K20P02M KC2020 08 13.97761222 44 54.02 -07 33 56.5          20.9 GVEP088L01
     K20P02M KC2020 08 13.98305922 44 54.48 -07 34 24.2          21.0 GVEP088L01
     K20P02M KC2020 08 13.98852822 44 54.97 -07 34 51.4          21.2 GVEP088L01
     K20P02M  C2020 08 14.46355822 45 56.538-08 11 07.87         21.30wUEP088F52
     K20P02M  C2020 08 14.47708022 45 57.439-08 12 08.10         21.03wUEP088F52
     K20P02M ^C2020 08 14.48465622 45 57.809-08 12 39.94         21.11GVEP088568
     K20P02M ^C2020 08 14.48561622 45 57.871-08 12 44.17         21.05GVEP088568
     K20P02M ^C2020 08 14.48659022 45 57.935-08 12 48.50         21.03GVEP088568
     K20P02M ^C2020 08 14.48753822 45 57.997-08 12 52.69         21.02GVEP088568
     K20P02M  C2020 08 14.49057522 45 58.317-08 13 07.89         20.79wUEP088F52
     K20P02M  C2020 08 14.50406722 45 59.210-08 14 07.45         21.08wUEP088F52

Observer details:
568 Mauna Kea.  Observers R. Wainscoat, C. Wipper, T. Burdullis.  Measurers R.
    Weryk, R. Wainscoat.  3.6-m Canada-France-Hawaii Telescope + CCD.
F51 Pan-STARRS 1, Haleakala.  Observers J. Bulger, T. Lowe, A. Schultz, M.
    Willman.  Measurers K. Chambers, S. Chastel, T. de Boer, L. Denneau, J.
    Fairlamb, H. Flewelling, M. Huber, C.-C. Lin, E. Magnier, Y. Ramanjooloo,
    R. Wainscoat, R. Weryk.  1.8-m Ritchey-Chretien + CCD.
F52 Pan-STARRS 2, Haleakala.  Observers J. Bulger, T. Dukes, T. Lowe, A.
    Schultz, M. Willman.  Measurers K. Chambers, S. Chastel, T. de Boer, L.
    Denneau, J. Fairlamb, H. Flewelling, M. Huber, C.-C. Lin, E. Magnier, Y.
    Ramanjooloo, R. Wainscoat, R. Weryk.  1.8-m Ritchey-Chretien + CCD.
L01 Visnjan Observatory, Tican.  Observers K. Korlevic, V. Pezo, K. Floricic,
    F. Hrzenjak, A. Macan, I. Paleka, E. Pettarin, D. Pujagic.  Measurer V.
    Pezo.  1.0-m f/2.9 reflector + CCD.

Orbital elements:
2020 PM2                                                 Earth MOID = 0.0136 AU
Epoch 2020 May 31.0 TT = JDT 2459000.5                  Veres
M 348.70459              (2000.0)            P               Q
n   0.36239249     Peri.  124.53923     -0.04502862     +0.99789024
a   1.9484230      Node   142.79436     -0.94002957     -0.02647912
e   0.5327478      Incl.    4.43615     -0.33810773     -0.05927835
P   2.72           H   26.1           G   0.15           U   8
Residuals in seconds of arc
200813 F51  0.0   0.1-    200813 L01  0.2-  0.2-    200814 568  0.0   0.0
200813 F51  0.0   0.0     200813 L01  0.5-  0.4-    200814 568  0.0   0.0
200813 F51  0.0   0.1+    200814 F52  0.0   0.0     200814 568  0.0   0.0
200813 F51  0.0   0.1+    200814 F52  0.1+  0.0     200814 F52  0.0   0.1+
200813 L01  0.5+  0.5+    200814 568  0.0   0.1-    200814 F52  0.1+  0.1+

Ephemeris:
2020 PM2                 a,e,i = 1.95, 0.53, 4                   q = 0.9104
Date    TT    R. A. (2000) Decl.     Delta      r    Elong.  Phase     V
2020 07 15    11 10 15.0 +24 07 41   0.1430  0.9283    48.7   124.7    26.9
...
2020 07 30    11 45 32.3 +35 10 23   0.04388 0.9845    44.6   133.6    25.4
...
2020 08 07    21 40 25.2 +26 33 48   0.01748 1.0268   136.3    43.0    19.0
...
2020 08 13    22 42 20.8 -06 01 48   0.05261 1.0629   160.5    18.5    20.8
2020 08 14    22 44 55.4 -07 33 46   0.05911 1.0692   161.6    17.4    21.0
2020 08 15    22 46 57.0 -08 47 42   0.06567 1.0756   162.5    16.4    21.2
...
2020 08 21    22 53 07.3 -12 57 49   0.1062  1.1155   167.3    11.5    22.2
...
2020 08 29    22 55 17.6 -15 09 39   0.1636  1.1720   171.6     7.2    23.0
...
2020 09 13    22 55 56.3 -16 13 28   0.2848  1.2841   165.7    11.1    24.6

M. P. C. Staff               (C) Copyright 2020 MPC           M.P.E.C. 2020-P88




More information about the Iaude mailing list